Simultaneous Nadir Overpasses (SNOs) Predictions

Prediction of SNOs between METOP-C and LANDSAT-8 Satellite Orbit:

Table of predicted SNOs for the next 14.0 days since TLE Epoch: 10/3/2020
Index Date (METOP-C) Time (METOP-C) Lat,Lon (METOP-C) SZA (METOP-C ) Date (LANDSAT-8) Time (LANDSAT-8) Lat,Lon (LANDSAT-8) SZA (LANDSAT-8 ) Distance(km) Time Diff (sec)
1 10/03/2020 07:06:04 81.15, 113.67 87.65 10/03/2020 07:07:00 81.14, 113.58 87.66 1.70 56
2 10/03/2020 07:56:44 -81.17, -78.41 92.27 10/03/2020 07:56:26 -81.16, -78.47 92.29 1.23 18
3 10/06/2020 02:40:23 81.15,-179.77 88.77 10/06/2020 02:41:14 81.16,-179.73 88.80 0.92 51
4 10/06/2020 03:31:03 -81.17, -11.80 91.14 10/06/2020 03:30:40 -81.18, -11.75 91.14 1.03 23
5 10/08/2020 22:14:44 81.14,-113.59 89.82 10/08/2020 22:15:30 81.15,-113.42 89.87 3.00 46
6 10/08/2020 23:05:24 -81.17, 54.41 90.08 10/08/2020 23:04:56 -81.17, 54.57 90.07 2.84 28
7 10/11/2020 17:49:03 81.16, -46.68 90.97 10/11/2020 17:49:45 81.16, -46.77 90.98 1.62 42
8 10/11/2020 18:39:44 -81.17, 120.98 88.98 10/11/2020 18:39:12 -81.16, 120.87 89.02 1.95 32
9 10/14/2020 13:23:23 81.15, 19.46 91.99 10/14/2020 13:24:00 81.15, 19.49 92.01 0.40 37
